AirNav   Free SoundLink Mini II speaker
 
 930 users online  

87I Yazoo County Airport
Yazoo City, Mississippi, USA

GOING TO YAZOO CITY?


FAA INFORMATION EFFECTIVE 26 MARCH 2020

Location

FAA Identifier: 87I
Lat/Long: 32-53-00.6000N 090-27-50.4000W
32-53.010000N 090-27.840000W
32.8835000,-90.4640000
(estimated)
Elevation: 105.3 ft. / 32.1 m (surveyed)
Variation: 00E (2010)
From city: 4 miles NW of YAZOO CITY, MS
Time zone: UTC -5 (UTC -6 during Standard Time)
Zip code: 39194

Airport Operations

Airport use: Open to the public
Activation date: 11/1989
Control tower: no
ARTCC: MEMPHIS CENTER
FSS: GREENWOOD FLIGHT SERVICE STATION
NOTAMs facility: GWO (NOTAM-D service available)
Attendance: UNATNDD
Wind indicator: lighted
Segmented circle: yes
Lights: MIRL RWY 17/35 PRESET LOW INTST DUSK - 2200; AFT 2200 ACTVT OR INCR INTST - CTAF.
Beacon: white-green (lighted land airport)
Operates sunset to sunrise.

Airport Communications

CTAF/UNICOM: 122.8
  • APCH/DEP SVC PRVDD BY MEMPHIS ARTCC ON FREQS 132.5/259.1 (JACKSON RCAG).

Nearby radio navigation aids

VOR radial/distance  VOR name  Freq  Var
MHZr327/32.6MAGNOLIA VORTAC113.2001W
SQSr192/36.1SIDON VORTAC114.7003E

Airport Services

Parking: tiedowns
Airframe service: MINOR
EMERGENCY AIRFRAME AND POWERPLANT REPAIRS CALL 662-746-8999.
Powerplant service: MINOR

Runway Information

Runway 17/35

Dimensions: 5001 x 100 ft. / 1524 x 30 m
Surface: asphalt, in good condition
Weight bearing capacity: 
Single wheel: 30.0
Double tandem: 64.0
Runway edge lights: medium intensity
RUNWAY 17  RUNWAY 35
Latitude: 32-53.419198N32-52.599020N
Longitude: 090-27.889163W090-27.789462W
Elevation: 104.2 ft.104.2 ft.
Traffic pattern: leftleft
Runway heading: 174354
Markings: nonprecision, in good conditionnonprecision, in good condition
Visual slope indicator: 2-light PAPI on left (3.00 degrees glide path)2-light PAPI on left (3.00 degrees glide path)
Touchdown point: yes, no lightsyes, no lights
Obstructions: 80 ft. trees, 3000 ft. from runway, 250 ft. left of centerline, 35:1 slope to clear53 ft. trees, 1590 ft. from runway, 26:1 slope to clear

Airport Ownership and Management from official FAA records

Ownership: Publicly-owned
Owner: COUNTY OF YAZOO
P.O.BOX 172
YAZOO CITY, MS 39194
Phone 662-746-1273
Manager: JODY CARSON
57 CODY COVE
YAZOO CITY, MS 39194
Phone 662-571-4045

Airport Operational Statistics

Aircraft based on the field: 10
Single engine airplanes: 9
Helicopters: 1
    
Aircraft operations: avg 27/day *
86% local general aviation
12% transient general aviation
1% military
* for 12-month period ending 15 February 2019

Additional Remarks

FOR CD CTC MEMPHIS ARTCC AT 901-368-8453.

Instrument Procedures

NOTE: All procedures below are presented as PDF files. If you need a reader for these files, you should download the free Adobe Reader.

NOT FOR NAVIGATION. Please procure official charts for flight.
FAA instrument procedures published for use from 26 March 2020 at 0901Z to 23 April 2020 at 0900Z.

 
IAPs - Instrument Approach Procedures
RNAV (GPS) RWY 17   download (169KB)
RNAV (GPS) RWY 35   download (154KB)
NOTE: Special Take-Off Minimums/Departure Procedures apply   download (116KB)

Other nearby airports with instrument procedures:

19M - C A Moore Airport (26 nm NE)
KMBO - Bruce Campbell Field Airport (32 nm SE)
KJVW - John Bell Williams Airport (35 nm S)
KHKS - Hawkins Field Airport (35 nm S)
KIDL - Indianola Municipal Airport (38 nm N)
 
Loc | Ops | Rwys | IFR | FBO | Links
Com | Nav | Svcs | Stats | Notes
Area around 87I (Yazoo County Airport)
 
Road maps at: MapQuest Bing Google
 
Aerial photo
WARNING: Photo may not be current or correct
Aerial photo of 87I (Yazoo County Airport)
Photo by Bart Barrack
Photo taken 18-Nov-2008
from 9500 feet MSL

Do you have a better or more recent aerial photo of Yazoo County Airport that you would like to share? If so, please send us your photo.

 
Sectional chart

 
Airport distance calculator
Flying to Yazoo County Airport? Find the distance to fly.

From to 87I

Sunrise and sunset
Times for 08-Apr-2020
 Local
(UTC-5)
 Zulu
(UTC)
Morning civil twilight06:1511:15
Sunrise06:4111:41
Sunset19:2600:26
Evening civil twilight19:5200:52

Current date and time
Zulu (UTC)  08-Apr-2020 23:52:04
Local (UTC-5)  08-Apr-2020 18:52:04
 
METAR
KMBO 
32nm SE 
082335Z AUTO 22003KT 10SM SCT028 26/22 A2980 RMK AO2 PWINO
KJVW 
35nm S 
082335Z AUTO VRB04G12KT 10SM CLR 27/26 A2979 RMK AO2
KHKS 
35nm S 
082253Z 21008KT 8SM CLR 27/21 A2980 RMK AO2 SLP084 T02720206
KJAN 
39nm SE 
082254Z 22009KT 9SM SCT032 SCT250 27/20 A2980 RMK AO2 SLP086 T02720200
KGWO 
42nm NE 
082253Z AUTO 21007KT 10SM BKN039 25/21 A2977 RMK AO2 SLP080 T02500211
KTVR 
43nm SW 
082253Z AUTO 19010KT 8SM CLR 28/22 A2979 RMK AO2 SLP091 T02830217
KGLH 
45nm NW 
082253Z 19009KT 9SM CLR 27/22 A2975 RMK AO2 SLP079 T02670217
KVKS 
46nm SW 
082335Z AUTO 19008KT 9SM CLR 27/23 A2978 RMK A01
TAF
KHKS 
35nm S 
081722Z 0818/0918 23009KT P6SM VCTS BKN035CB FM090200 21005KT P6SM SCT250 FM091100 30005KT P6SM VCTS BKN025CB FM091300 32006KT P6SM SCT025 BKN250
KJAN 
39nm SE 
081722Z 0818/0918 23009KT P6SM VCTS BKN035CB FM090200 21005KT P6SM SCT250 FM091100 30005KT P6SM VCTS BKN025CB FM091300 32006KT P6SM SCT025 BKN250
KGWO 
42nm NE 
081722Z 0818/0918 24008G15KT 4SM TSRA BR BKN025CB FM082000 23009KT P6SM VCTS BKN035CB FM090200 20005KT P6SM SCT250 FM090700 24008KT P6SM VCTS SCT035CB BKN100 FM091000 34008KT P6SM VCTS BKN025CB FM091200 01010G19KT P6SM SCT250
NOTAMs
Click for the latest NOTAMs
NOTAMs are issued by the DoD/FAA and will open in a separate window not controlled by AirNav.

 

 
 

Would you like to see your business listed on this page?

 If your business provides an interesting product or service to pilots, flight crews, aircraft, or users of the Yazoo County Airport, you should consider listing it here.  To start the listing process, click on the button below
 
Add a business
 

Other Pages about Yazoo County Airport

www.yazoocounty.net/yazoo-county-airport
 
Update a link
 
Copyright © AirNav, LLC. All rights reserved. Privacy Policy  Contact